[[{"header":{"parameterUnit":"m.s-1","parameterCategory":1,"la1":30.2991,"la2":30.254,"lo1":-89.0895,"lo2":-89.0444,"dy":0.0017,"dx":0.0017,"nx":28,"ny":28,"refTime":"2025-01-12T03:00:00:Z","depth":0,"parameterNumber":2,"parameterNumberName":"U-component_of_WINDS"},"data":[0,0,0,0,0,0,0,0,0,0,0,0,0,0,0,0,0,0,0,0,0,0,0,0,0,0,0,0,0,0,0,0,0,0,0,0,0,0,0,0,0,0,0,0,0,0,0,0,0,0,0,0,0,0,0,0,0,0,0.8759,0.8759,0,0.8701,0.87,0.8699,0.8625,0.8624,0.8622,0.8621,0.8562,0.8562,0.8562,0,0,0,0,0,0,0,0,0,0,0,0,0,0.8807,0.8807,0.8759,0.8759,0.8758,0.8701,0.87,0.8699,0.8625,0.8624,0.8622,0.8621,0.8563,0.8562,0.8562,0,0,0,0,0,0,0,0,0,0,0,0,0,0.8772,0.8807,0.876,0.8714,0.8709,0.8701,0.87,0.8699,0.8625,0.8624,0.8622,0.862,0.8563,0.8562,0.8561,0.8593,0,0,0.8559,0.8559,0,0,0,0,0,0,0,0,0.8774,0.877,0.8721,0.8717,0.8712,0.8668,0.8695,0.8663,0.8626,0.8657,0.8621,0.8619,0.8599,0.8595,0.8588,0.859,0.8588,0.8559,0.8559,0.8559,0.8558,0,0,0,0,0,0,0,0.8776,0.8772,0.8736,0.8721,0.8715,0.8697,0.8689,0.8689,0.8639,0.8654,0.8649,0.8643,0.8596,0.8589,0.8586,0.8587,0.8559,0.8559,0.8558,0.8558,0.8609,0.8611,0,0,0,0,0,0,0.8785,0.8775,0.8738,0.8734,0.8739,0.8697,0.8689,0.8684,0.8639,0.863,0.8644,0.864,0.8591,0.8587,0.8584,0.8616,0.8559,0.8558,0.8558,0.8607,0.861,0.8612,0,0,0,0,0,0,0.8787,0.8783,0.874,0.8753,0.8746,0.8698,0.8693,0.8684,0.8677,0.8631,0.8622,0.8646,0.859,0.8585,0.8591,0.8613,0.8558,0.8557,0.8605,0.8608,0.8611,0.8681,0,0,0,0,0,0,0.8789,0.8784,0.8796,0.8754,0.8746,0.8748,0.8694,0.8684,0.8675,0.8669,0.8631,0.8623,0.8588,0.8592,0.859,0.8611,0.8557,0.8603,0.8607,0.861,0.8677,0.8686,0.8694,0,0,0,0,0,0.879,0.8819,0.8796,0.8792,0.8759,0.875,0.8745,0.8704,0.8678,0.8689,0.8659,0.8624,0.8611,0.8593,0.859,0.8611,0.8602,0.8606,0.8609,0.8673,0.8684,0.8694,0,0,0,0,0,0,0.8865,0.8812,0.8787,0.8803,0.8781,0.8737,0.875,0.8718,0.8704,0.8698,0.8648,0.864,0.8651,0.8632,0.8613,0.8638,0.8601,0.8605,0.865,0.8661,0.8669,0.8673,0.8556,0,0,0,0,0,0.8883,0.888,0.8834,0.8852,0.8843,0.8798,0.8793,0.8763,0.8739,0.8729,0.87,0.8678,0.8669,0.8664,0.8653,0.8674,0.8664,0.8687,0.8696,0.8703,0.8706,0.8713,0.8722,0.8625,0.8625,0.8624,0,0,0.8921,0.8892,0.8893,0.8866,0.8846,0.8843,0.8791,0.8791,0.8788,0.8729,0.8732,0.871,0.8682,0.8695,0.8699,0.8679,0.8731,0.8708,0.8714,0.8713,0.8718,0.8727,0.8736,0.8627,0.8627,0.8626,0,0,0.8987,0.8966,0.8977,0.8958,0.8927,0.8897,0.89,0.8861,0.8844,0.8846,0.8801,0.8797,0.8783,0.8764,0.8752,0.881,0.8776,0.8808,0.8853,0.886,0.8868,0.8874,0.8893,0.89,0.8812,0.8812,0.8812,0,0.9038,0.9031,0.8987,0.8989,0.8978,0.8924,0.8935,0.8918,0.8886,0.888,0.8858,0.8837,0.8815,0.8821,0.8835,0.8828,0.8829,0.8812,0.887,0.8876,0.8882,0.8899,0.8906,0.8816,0.8816,0.8815,0.8815,0,0.9094,0.909,0.9103,0.9072,0.9063,0.9069,0.9025,0.9021,0.8992,0.8965,0.8966,0.8938,0.8919,0.8918,0.8891,0.892,0.8908,0.888,0.8841,0.8896,0.8911,0.8917,0.8822,0.882,0.8819,0.8818,0,0,0.9205,0.9149,0.9154,0.9138,0.9101,0.9097,0.91,0.9081,0.9077,0.9057,0.9058,0.9046,0.9018,0.9006,0.8975,0.8982,0.9027,0.8952,0.895,0.8965,0.9054,0.9075,0.9083,0.9005,0.9006,0.9007,0.9056,0,0.9263,0.9265,0.9224,0.9237,0.9232,0.9181,0.9183,0.916,0.9134,0.9126,0.9098,0.9089,0.9054,0.9046,0.9051,0.902,0.9044,0.9017,0.9003,0.9003,0.9009,0.9091,0.9113,0.9161,0.9062,0.9063,0.9064,0,0.933,0.9312,0.9324,0.9284,0.928,0.9283,0.9261,0.9255,0.9227,0.9207,0.9192,0.9157,0.9157,0.9121,0.9119,0.9101,0.9094,0.9078,0.9079,0.9074,0.9035,0.9087,0.9176,0.9182,0.9073,0.9072,0.9071,0,0.9407,0.9386,0.939,0.9378,0.9332,0.9335,0.9316,0.9287,0.9277,0.9258,0.9251,0.9233,0.9223,0.9209,0.917,0.9148,0.9171,0.9133,0.9154,0.9155,0.916,0.916,0.9246,0.9159,0.9159,0.9159,0.9158,0,0.9474,0.9483,0.9423,0.9425,0.9433,0.9387,0.9396,0.9372,0.9346,0.9342,0.9298,0.9295,0.9244,0.9235,0.9205,0.9206,0.9202,0.9186,0.9177,0.9188,0.919,0.9181,0.9176,0.916,0.916,0.916,0.9159,0,0.956,0.9521,0.9521,0.9477,0.9466,0.9474,0.9436,0.9436,0.9407,0.9402,0.9399,0.9354,0.9341,0.93,0.9278,0.9257,0.9267,0.9252,0.9276,0.927,0.9292,0.929,0.9374,0.9382,0.9292,0.9293,0.9294,0,0.9604,0.961,0.9566,0.956,0.9542,0.9533,0.9523,0.9478,0.9469,0.9436,0.944,0.9423,0.9407,0.9389,0.9354,0.9336,0.9319,0.935,0.9316,0.9326,0.9316,0.9316,0.9315,0.9357,0.9358,0.9359,0.936,0,0.9686,0.9666,0.9653,0.9632,0.9621,0.9603,0.9582,0.958,0.9529,0.9521,0.9507,0.9495,0.9471,0.9454,0.943,0.941,0.9376,0.9371,0.9374,0.9385,0.9397,0.9388,0.9294,0.9369,0.9368,0.9367,0.9367,0.9367,0.9751,0.9752,0.9721,0.9707,0.9687,0.9668,0.9665,0.9635,0.9623,0.9599,0.9574,0.9562,0.9533,0.9497,0.9479,0.9469,0.9451,0.9456,0.9457,0.9459,0.9463,0.9401,0.9465,0.9464,0.9464,0.9464,0.9463,0,0.9828,0.9805,0.9793,0.9765,0.9754,0.9723,0.9698,0.969,0.9681,0.9656,0.9641,0.9624,0.9607,0.9571,0.955,0.9549,0.9533,0.9545,0.9544,0.9539,0.9482,0.9479,0.9558,0.9558,0.9558,0.9558,0.9558,0.9558,0.9867,0.9867,0.9843,0.9832,0.9809,0.9797,0.9785,0.9767,0.9747,0.973,0.9715,0.9692,0.9661,0.9638,0.9621,0.9611,0.9604,0.9622,0.9606,0.9552,0.9543,0.9535,0.9532,0.9621,0.9621,0.9664,0.9664,0.9664]},{"header":{"parameterUnit":"m.s-1","parameterCategory":1,"la1":30.2991,"la2":30.254,"lo1":-89.0895,"lo2":-89.0444,"dy":0.0017,"dx":0.0017,"nx":28,"ny":28,"refTime":"2025-01-12T03:00:00:Z","depth":0,"parameterNumber":3,"parameterNumberName":"V-component_of_WINDS"},"data":[0,0,0,0,0,0,0,0,0,0,0,0,0,0,0,0,0,0,0,0,0,0,0,0,0,0,0,0,0,0,0,0,0,0,0,0,0,0,0,0,0,0,0,0,0,0,0,0,0,0,0,0,0,0,0,0,0,0,0.9453,0.9451,0,0.9262,0.926,0.9258,0.9139,0.9139,0.9138,0.9137,0.8937,0.8932,0.8928,0,0,0,0,0,0,0,0,0,0,0,0,0,0.9707,0.9703,0.9453,0.9451,0.9448,0.9263,0.926,0.9257,0.9139,0.9139,0.9138,0.9137,0.8939,0.8933,0.8927,0,0,0,0,0,0,0,0,0,0,0,0,0,0.9565,0.9702,0.9453,0.9367,0.9357,0.9263,0.926,0.9257,0.914,0.9139,0.9138,0.9137,0.8941,0.8934,0.8927,0.8902,0,0,0.8905,0.8902,0,0,0,0,0,0,0,0,0.9573,0.9556,0.9382,0.9373,0.9362,0.9224,0.9276,0.9138,0.914,0.9222,0.9137,0.9136,0.9033,0.9018,0.8984,0.8892,0.8884,0.8904,0.89,0.8897,0.8895,0,0,0,0,0,0,0,0.9583,0.9563,0.9377,0.938,0.9367,0.9335,0.9314,0.9249,0.9135,0.9215,0.9206,0.9185,0.9027,0.8991,0.8979,0.8881,0.8904,0.8898,0.8894,0.8891,0.8755,0.8756,0,0,0,0,0,0,0.9608,0.9572,0.9383,0.9372,0.9467,0.9332,0.9308,0.9269,0.9135,0.9114,0.9186,0.918,0.9004,0.8987,0.8971,0.8931,0.8897,0.889,0.8886,0.8755,0.8755,0.8756,0,0,0,0,0,0,0.9614,0.9592,0.9391,0.9469,0.9441,0.9328,0.9286,0.9266,0.923,0.9114,0.9092,0.9171,0.9003,0.8981,0.8919,0.8922,0.8887,0.8881,0.8754,0.8755,0.8756,0.8852,0,0,0,0,0,0,0.9621,0.9595,0.9586,0.947,0.9438,0.9345,0.9286,0.9263,0.9219,0.9209,0.9094,0.9074,0.9,0.8931,0.8912,0.8912,0.8875,0.8753,0.8754,0.8755,0.8848,0.8856,0.8863,0,0,0,0,0,0.9631,0.962,0.9586,0.9564,0.9425,0.9345,0.9327,0.9244,0.922,0.9208,0.9133,0.9078,0.8926,0.8925,0.8904,0.8901,0.8752,0.8754,0.8755,0.8845,0.8855,0.8863,0,0,0,0,0,0,0.9738,0.9604,0.9564,0.9516,0.9443,0.9326,0.9309,0.9257,0.9188,0.9182,0.908,0.9055,0.9003,0.8946,0.8948,0.8868,0.8832,0.883,0.8908,0.8916,0.8924,0.8938,0.8869,0,0,0,0,0,0.9756,0.9705,0.959,0.9558,0.9524,0.9423,0.9386,0.9328,0.9247,0.9215,0.9136,0.9058,0.8992,0.8951,0.8885,0.884,0.8811,0.8827,0.8835,0.8841,0.884,0.8808,0.8813,0.8761,0.8761,0.8761,0,0,0.9793,0.9713,0.9687,0.9578,0.9514,0.9461,0.9398,0.9345,0.9304,0.9207,0.9143,0.9083,0.8989,0.8935,0.8907,0.8886,0.8848,0.8843,0.885,0.8844,0.8811,0.8816,0.882,0.8762,0.8762,0.8762,0,0,0.9832,0.9768,0.9734,0.9672,0.9577,0.951,0.9502,0.9391,0.9347,0.9283,0.9208,0.9156,0.9046,0.8982,0.8935,0.8948,0.8893,0.8929,0.8968,0.8939,0.8943,0.8946,0.8949,0.8951,0.8928,0.8928,0.8928,0,0.9889,0.9808,0.9722,0.9673,0.9626,0.9537,0.95,0.9443,0.9331,0.9299,0.9278,0.9136,0.9067,0.8995,0.8998,0.8964,0.8949,0.8941,0.895,0.8952,0.8954,0.8955,0.8956,0.8933,0.8933,0.8932,0.8932,0,0.9882,0.9827,0.981,0.9705,0.9656,0.9613,0.9518,0.9479,0.9425,0.9359,0.9293,0.9207,0.912,0.9099,0.9046,0.9019,0.9008,0.897,0.8931,0.8965,0.8964,0.8964,0.894,0.8938,0.8937,0.8936,0,0,0.9983,0.9831,0.9826,0.9776,0.9665,0.9619,0.9571,0.9487,0.9454,0.9379,0.9335,0.9243,0.9206,0.9152,0.9091,0.9066,0.9079,0.9029,0.9026,0.904,0.904,0.9069,0.9071,0.9042,0.9042,0.9042,0.9047,0,1.0004,0.9916,0.9836,0.9775,0.9721,0.9635,0.9593,0.9519,0.9456,0.9399,0.9328,0.9264,0.9222,0.9188,0.916,0.9084,0.9077,0.9082,0.8997,0.8995,0.9022,0.9071,0.9101,0.911,0.9047,0.9047,0.9047,0,1.0017,0.9947,0.9882,0.9773,0.9748,0.9712,0.9627,0.9575,0.9488,0.9443,0.9384,0.9319,0.9261,0.923,0.9147,0.9152,0.9112,0.9069,0.9067,0.9055,0.9022,0.9057,0.9112,0.9113,0.9046,0.9046,0.9046,0,1.0094,0.9984,0.993,0.989,0.9763,0.9739,0.9685,0.9597,0.9551,0.9477,0.9445,0.9365,0.9321,0.9259,0.9173,0.9159,0.9098,0.906,0.9057,0.906,0.9047,0.9049,0.9094,0.9026,0.9026,0.9026,0.9026,0,1.0125,1.0088,0.9963,0.9929,0.9884,0.9791,0.9748,0.9686,0.9608,0.9559,0.948,0.9435,0.9325,0.9266,0.9199,0.9139,0.912,0.908,0.9062,0.9086,0.9091,0.9058,0.9054,0.9026,0.9026,0.9026,0.9026,0,1.0204,1.0119,1.0054,0.9939,0.9909,0.9881,0.9781,0.9744,0.9677,0.9615,0.9595,0.9489,0.9415,0.9324,0.9221,0.9175,0.9121,0.9095,0.9151,0.9141,0.9142,0.9143,0.9166,0.9163,0.9099,0.91,0.9101,0,1.0228,1.0197,1.008,1.0042,0.9991,0.9931,0.9884,0.9791,0.9745,0.9642,0.9617,0.9537,0.9469,0.9355,0.9266,0.9186,0.9156,0.917,0.9144,0.9168,0.9154,0.9156,0.9151,0.9177,0.9178,0.9179,0.918,0,1.028,1.0239,1.0175,1.0097,1.0043,0.9976,0.9905,0.9878,0.977,0.9722,0.9647,0.9594,0.9489,0.941,0.9318,0.9259,0.92,0.9189,0.9183,0.9207,0.9239,0.9219,0.9168,0.9188,0.9187,0.9187,0.9186,0.9186,1.0329,1.0298,1.021,1.0141,1.0078,1.0014,0.9973,0.99,0.9836,0.9745,0.9693,0.9619,0.9529,0.94,0.9344,0.9282,0.9261,0.9254,0.9251,0.9251,0.9257,0.9251,0.9265,0.9265,0.9264,0.9264,0.9264,0,1.0375,1.0314,1.0252,1.0156,1.0101,1.0053,0.9972,0.9928,0.9864,0.9787,0.9722,0.9633,0.9556,0.9462,0.9378,0.9346,0.9317,0.9327,0.9327,0.9314,0.9282,0.9294,0.9352,0.9352,0.9352,0.9352,0.9352,0.9352,1.0392,1.0334,1.0283,1.0193,1.0131,1.0059,1.0016,0.9955,0.9893,0.9799,0.9735,0.9675,0.9589,0.9498,0.9424,0.9398,0.9369,0.9387,0.9353,0.9324,0.9317,0.9309,0.932,0.9382,0.9383,0.939,0.939,0.939]}]]